Погода в Онешти

Румыния     46°15′21″N   26°46′32″E
темп.,
°C
ветер,
м/с
пор.,
м/с
влажн.,
%
обл.,
%
осадки,
мм/ч
давл.,
гПа
погр.,
м
15 августа, пн
пн1500:00+16зсз2289100 0.0 100827
03:00+16з3290100 0.5 100831
06:00+15з22885 0.0 100827
09:00+21з2373100 0.0 1007260
12:00+25с3455100 0.0 10071163
15:00+27ссз2246100 0.4 10061929
18:00+23з2367100 0.5 1006203
21:00+19зюз3280100 0.9 100724
16 августа, вт
вт1600:00+17зюз3389100 0.5 100739
03:00+16зюз33885 0.5 100837
06:00+16зюз33905 0.0 100747
09:00+21зюз23713 0.0 1007292
12:00+27зюз32465 0.1 10071374
15:00+28зюз444286 0.2 10071783
18:00+25ссв555621 0.1 1008500
21:00+17зюз2296100 2.3 101031
17 августа, ср
ср1700:00+17зюз239020 1.0 101034
03:00+15юз339048 1.0 101043
06:00+16зюз238820 0.0 100949
09:00+21з23676 0.0 1010278
12:00+28св12445 0.0 10091466
15:00+28ссз344534 0.1 10091086
18:00+21ссв1282100 1.7 1010151
21:00+18зсз1193100 4.2 101114
18 августа, чт
чт1800:00+18з229159 0.4 101236
03:00+17зюз229034 0.4 101128
06:00+16зюз22895 0.0 101125
09:00+21з22755 0.2 1012244
12:00+26ссз33516 0.0 10111340
15:00+28с564672 0.1 10101802
18:00+28с46441 0.0 10101702
21:00+22зюз22640 0.0 101111
19 августа, пт
пт1900:00+21з22670 0.0 101125
03:00+19з33735 0.0 101131
06:00+19зюз22720 0.0 101122
09:00+24зсз12530 0.0 1011278
12:00+29ссв34415 0.0 10101569
15:00+31св44344 0.0 10091890
18:00+31ссв33330 0.0 10091794
21:00+23ююв01520 0.0 101011